IRIDIUM 153

Last updated on Fri Sep 11 2026 00:03:06 GMT+0000 (Coordinated Universal Time)

1 43078U 17083J 26253.48137868 .00000053 00000+0 11850-4 0 9990 2 43078 86.3909 254.7947 0002447 90.2619 269.8857 14.34217480457501
UTC large
Height (km)
Speed (km/s)
/
Latitude / Longitude
Inclination (degrees)
Orbital Period (minutes)
Azimuth
Elevation
Range (km)
Doppler Factor

Next 0 passes for location: London (51.5072 / 0.1276)

No passes found over London.
IRIDIUM 153